| time (UTC) | temp F | wind direction | speed knots | gust knots | rain 1hr in | rain 24hr in | rain mn in | humidity % | barometer mb |
| 20260503223226 | 66 | 248 | 2.6 | 3.5 | 0.10 | 3.35 | 2.07 | 28 | |
| 20260503222150 | 66 | 207 | 2.6 | 4.3 | 0.00 | 3.35 | 1.97 | 28 | |
| 20260503221052 | 67 | 134 | 2.6 | 5.2 | 0.00 | 3.44 | 1.97 | 27 | |
| 20260503220034 | 68 | 236 | 2.6 | 3.5 | 0.00 | 3.44 | 1.97 | 26 | |
| 20260503215059 | 68 | 261 | 1.7 | 2.6 | 0.00 | 3.54 | 1.97 | 26 | |
| 20260503214024 | 68 | 146 | 0.9 | 1.7 | 0.00 | 3.64 | 1.97 | 26 | |
| 20260503213055 | 70 | 250 | 1.7 | 2.6 | 0.00 | 3.64 | 1.97 | 26 | |
| 20260503212334 | 68 | 191 | 3.5 | 4.3 | 0.00 | 3.64 | 1.97 | 26 | |
| 20260503211130 | 68 | 221 | 3.5 | 4.3 | 0.00 | 3.64 | 1.97 | 26 | |
| 20260503210100 | 69 | 265 | 2.6 | 4.3 | 0.00 | 3.64 | 1.97 | 26 | |
| 20260503205032 | 69 | 208 | 3.5 | 5.2 | 0.00 | 3.74 | 1.97 | 26 | |
| 20260503204052 | 68 | 248 | 2.6 | 4.3 | 0.00 | 3.74 | 1.97 | 26 | |
| 20260503203108 | 68 | 172 | 2.6 | 3.5 | 0.00 | 3.74 | 1.97 | 26 | |
| 20260503202107 | 68 | 246 | 2.6 | 5.2 | 0.00 | 3.74 | 1.97 | 26 | |
| 20260503201037 | 68 | 206 | 2.6 | 4.3 | 0.00 | 3.74 | 1.97 | 26 | |
| 20260503200111 | 67 | 293 | 3.5 | 6.1 | 0.00 | 3.74 | 1.97 | 26 | |
| 20260503195101 | 67 | 230 | 3.5 | 5.2 | 0.00 | 3.84 | 1.97 | 27 | |
| 20260503194247 | 67 | 153 | 2.6 | 3.5 | 0.00 | 3.84 | 1.97 | 27 | |
| 20260503193043 | 67 | 148 | 2.6 | 3.5 | 0.00 | 3.84 | 1.97 | 27 | |
| 20260503192115 | 67 | 230 | 3.5 | 6.1 | 0.00 | 3.84 | 1.97 | 27 | |
| 20260503191117 | 67 | 212 | 1.7 | 3.5 | 0.10 | 3.84 | 1.97 | 27 | |
| 20260503190052 | 66 | 214 | 3.5 | 5.2 | 0.10 | 3.84 | 1.97 | 27 | |
| 20260503185159 | 66 | 238 | 1.7 | 2.6 | 0.20 | 3.84 | 1.97 | 27 | |
| 20260503184051 | 66 | 292 | 1.7 | 3.5 | 0.20 | 3.84 | 1.97 | 27 | |
| 20260503183041 | 65 | 241 | 2.6 | 5.2 | 0.20 | 3.84 | 1.97 | 27 | |
| 20260503182053 | 66 | 255 | 1.7 | 2.6 | 0.20 | 3.84 | 1.97 | 28 | |
| 20260503181023 | 66 | 265 | 1.7 | 2.6 | 0.10 | 3.74 | 1.87 | 28 | |
| 20260503180024 | 64 | 159 | 1.7 | 2.6 | 0.10 | 3.74 | 1.87 | 28 | |
| 20260503175026 | 64 | 186 | 1.7 | 3.5 | 0.00 | 3.64 | 1.77 | 28 | |
| 20260503174105 | 63 | 245 | 3.5 | 4.3 | 0.00 | 3.64 | 1.77 | 28 | |
| 20260503173030 | 64 | 249 | 2.6 | 3.5 | 0.00 | 3.64 | 1.77 | 29 | |
| 20260503172124 | 62 | 197 | 2.6 | 4.3 | 0.00 | 3.64 | 1.77 | 30 | |
| 20260503171103 | 62 | 42 | 0.9 | 2.6 | 0.10 | 3.64 | 1.77 | 29 | |
| 20260503131315 | 49 | 78 | 0.9 | 0.9 | 0.00 | 3.64 | 1.28 | 60 | |
| 20260503130109 | 48 | 287 | 0.0 | 0.9 | 0.00 | 3.64 | 1.28 | 62 | |
| 20260503100208 | 40 | 0.0 | 0.0 | 0.10 | 3.74 | 1.18 | 74 | ||
| 20260503090134 | 43 | 0.0 | 0.0 | 0.39 | 3.94 | 1.08 | 65 | ||
| 20260503080948 | 45 | 39 | 0.9 | 0.9 | 0.10 | 3.64 | 0.79 | 61 | |
| 20260503072819 | 47 | 68 | 0.0 | 0.9 | 0.10 | 3.74 | 0.69 | 60 | |
| 20260503071646 | 47 | 52 | 1.7 | 2.6 | 0.10 | 3.74 | 0.69 | 60 | |
| 20260503070750 | 47 | 58 | 0.9 | 0.9 | 0.20 | 3.84 | 0.69 | 60 | |
| 20260503054628 | 48 | 0.0 | 0.0 | 0.30 | 4.13 | 0.49 | 56 | ||
| 20260503053043 | 49 | 77 | 0.0 | 0.9 | 0.30 | 4.33 | 0.49 | 54 | |
| 20260503052044 | 49 | 351 | 0.9 | 1.7 | 0.10 | 4.13 | 0.20 | 54 | |
| 20260503051137 | 50 | 30 | 0.9 | 1.7 | 0.10 | 4.13 | 0.20 | 54 | |
| 20260503050253 | 49 | 44 | 1.7 | 1.7 | 0.10 | 4.33 | 0.20 | 55 | |
| 20260503045224 | 49 | 0.0 | 0.0 | 0.20 | 4.33 | 0.20 | 55 | ||
| 20260503044019 | 48 | 0.0 | 0.0 | 0.30 | 4.33 | 0.20 | 54 | ||
| 20260503043607 | 49 | 46 | 0.9 | 1.7 | 0.39 | 4.43 | 0.20 | 53 | |
| 20260503042042 | 49 | 39 | 0.9 | 0.9 | 0.39 | 4.33 | 0.10 | 52 | |
| 20260503041023 | 50 | 39 | 0.9 | 0.9 | 0.39 | 4.33 | 0.10 | 52 | |
| 20260503040231 | 50 | 73 | 1.7 | 1.7 | 0.49 | 4.33 | 0.10 | 51 | |
| 20260503035058 | 51 | 58 | 1.7 | 2.6 | 0.49 | 4.33 | 4.33 | 52 | |
| 20260503034028 | 51 | 65 | 1.7 | 2.6 | 0.39 | 4.33 | 4.23 | 51 | |
| 20260503033153 | 51 | 54 | 1.7 | 2.6 | 0.30 | 4.23 | 4.13 | 50 | |
| 20260503032031 | 51 | 69 | 1.7 | 1.7 | 0.20 | 4.13 | 4.04 | 50 | |
| 20260503031033 | 51 | 96 | 1.7 | 2.6 | 0.30 | 4.13 | 4.04 | 50 | |
| 20260503030034 | 52 | 65 | 0.9 | 1.7 | 0.20 | 4.04 | 3.94 | 49 | |
| 20260503025139 | 52 | 56 | 1.7 | 3.5 | 0.10 | 3.94 | 3.84 | 48 | |
| 20260503024108 | 52 | 71 | 0.9 | 2.6 | 0.10 | 3.94 | 3.84 | 48 | |
| 20260503023038 | 52 | 23 | 2.6 | 2.6 | 0.20 | 4.04 | 3.84 | 48 | |
| 20260503022112 | 52 | 36 | 1.7 | 1.7 | 0.20 | 4.04 | 3.84 | 48 | |
| 20260503021103 | 51 | 77 | 0.9 | 1.7 | 0.10 | 3.94 | 3.74 | 48 | |
| 20260503020353 | 51 | 0.0 | 0.0 | 0.10 | 3.94 | 3.74 | 48 | ||
| 20260503015045 | 51 | 57 | 0.9 | 1.7 | 0.10 | 3.94 | 3.74 | 48 | |
| 20260503014123 | 51 | 59 | 0.9 | 1.7 | 0.20 | 3.94 | 3.74 | 48 | |
| 20260503013122 | 51 | 71 | 0.9 | 0.9 | 0.10 | 3.84 | 3.64 | 47 | |
| 20260503012122 | 51 | 67 | 0.9 | 0.9 | 0.20 | 3.94 | 3.64 | 46 | |
| 20260503011019 | 52 | 62 | 0.9 | 0.9 | 0.20 | 3.94 | 3.64 | 45 | |
| 20260503010042 | 51 | 0.0 | 0.0 | 0.30 | 4.23 | 3.64 | 45 | ||
| 20260503005331 | 53 | 43 | 1.7 | 1.7 | 0.30 | 4.23 | 3.64 | 45 | |
| 20260503004139 | 53 | 65 | 0.9 | 0.9 | 0.39 | 4.13 | 3.54 | 44 | |
| 20260503003037 | 54 | 71 | 0.9 | 0.9 | 0.49 | 4.13 | 3.54 | 43 | |
| 20260503002027 | 54 | 68 | 0.9 | 1.7 | 0.39 | 4.04 | 3.44 | 41 | |
| 20260503001030 | 55 | 60 | 0.9 | 1.7 | 0.39 | 4.04 | 3.44 | 40 | |
| 20260503000050 | 55 | 71 | 0.9 | 2.6 | 0.30 | 3.94 | 3.35 | 40 | |
| 20260502235123 | 56 | 82 | 0.9 | 0.9 | 0.30 | 3.94 | 3.35 | 38 | |
| 20260502234105 | 57 | 56 | 0.9 | 2.6 | 0.10 | 3.74 | 3.15 | 36 | |
| 20260502233041 | 58 | 67 | 2.6 | 4.3 | 0.00 | 3.64 | 3.05 | 34 | |
| 20260502232037 | 58 | 55 | 3.5 | 4.3 | 0.10 | 3.64 | 3.05 | 34 | |
| 20260502231141 | 59 | 53 | 3.5 | 5.2 | 0.20 | 3.64 | 3.05 | 34 | |
| 20260502230039 | 59 | 51 | 1.7 | 4.3 | 0.20 | 3.64 | 3.05 | 33 | |
| 20260502225101 | 59 | 28 | 3.5 | 5.2 | 0.30 | 3.64 | 3.05 | 33 | |
| 20260502224116 | 59 | 70 | 1.7 | 3.5 | 0.39 | 3.64 | 3.05 | 33 |